Simultaneous Nadir Overpasses (SNOs) Predictions

Prediction of SNOs between GOES-16 and NOAA-19 Satellite Orbit:

Table of predicted SNOs for the next 14.0 days since TLE Epoch: 2/27/2021
Index Date Time (GOES-16) GOES-16 Lat,Lon NOAA-19 Lat,Lon Distance(km) Time Diff (sec)
1 03/01/2021 11:44:33 0.01, -75.22 0.34, -76.78 177.06 80
2 03/02/2021 11:30:09 0.01, -75.23 -0.30, -73.91 150.15 80
3 03/03/2021 11:18:26 0.01, -75.23 -0.95, -71.05 477.37 80
4 03/04/2021 23:53:52 -0.01, -75.20 -0.89, -78.88 420.98 80
5 03/05/2021 23:42:10 -0.01, -75.21 -0.17, -76.03 93.50 80
6 03/06/2021 23:27:46 -0.01, -75.21 0.48, -73.17 234.23 80
7 03/09/2021 11:51:11 0.01, -75.28 0.68, -78.07 319.21 80
8 03/10/2021 11:36:48 0.01, -75.29 -0.02, -75.21 9.04 80
9 03/11/2021 11:25:05 0.01, -75.30 -0.67, -72.35 337.25 80
